This is the latest recevied weather packets stored in our database for station/object K1LVA. If no packets are shown the sender has not sent any weather packets the latest 10 day(s).
| Time | Temp. | Humidity | Pressure | Rain* | Wind** | Luminosity | Snow |
|---|---|---|---|---|---|---|---|
| 1778151290 | 18.89° C | 99% | 1011.3 hPa | 0 mm | - | 1 W/m² | - |
| 1778150986 | 18.89° C | 99% | 1010.7 hPa | 0 mm | - | 1 W/m² | - |
| 1778150684 | 18.89° C | 99% | 1010.9 hPa | 0 mm | - | 0 W/m² | - |
| 1778150379 | 18.89° C | 99% | 1011.2 hPa | 0 mm | - | 0 W/m² | - |
| 1778150076 | 18.89° C | 99% | 1011.2 hPa | 0 mm | - | 0 W/m² | - |
| 1778149772 | 18.89° C | 99% | 1011.2 hPa | 1.27 mm | - | 0 W/m² | - |
| 1778149469 | 18.89° C | 99% | 1011.4 hPa | 3.05 mm | - | 0 W/m² | - |
| 1778149166 | 18.89° C | 99% | 1011 hPa | 3.05 mm | - | 0 W/m² | - |
| 1778148861 | 18.89° C | 99% | 1011.4 hPa | 1.27 mm | - | 0 W/m² | - |
| 1778148558 | 18.89° C | 99% | 1011.4 hPa | 0 mm | - | 0 W/m² | - |
| 1778148255 | 18.89° C | 99% | 1011.1 hPa | 0 mm | - | 0 W/m² | - |
| 1778147953 | 18.89° C | 99% | 1010.5 hPa | 0 mm | - | 0 W/m² | - |
| 1778147650 | 18.89° C | 99% | 1010.5 hPa | 0 mm | - | 0 W/m² | - |
| 1778147347 | 18.89° C | 99% | 1010.7 hPa | 0 mm | - | 0 W/m² | - |
| 1778147043 | 18.89° C | 99% | 1010.9 hPa | 0 mm | - | 0 W/m² | - |
| 1778146740 | 19.44° C | 99% | 1011 hPa | 0 mm | - | 0 W/m² | - |
| 1778146439 | 19.44° C | 99% | 1011.5 hPa | 0 mm | - | 0 W/m² | - |
| 1778146137 | 19.44° C | 99% | 1011.4 hPa | 0 mm | - | 0 W/m² | - |
| 1778145832 | 19.44° C | 98% | 1011.4 hPa | 3.05 mm | - | 0 W/m² | - |
| 1778145529 | 19.44° C | 98% | 1011.7 hPa | 6.1 mm | - | 0 W/m² | - |
| 1778145225 | 19.44° C | 98% | 1011.7 hPa | 7.11 mm | - | 0 W/m² | - |
| 1778144921 | 19.44° C | 98% | 1012 hPa | 7.87 mm | - | 0 W/m² | - |
| 1778144618 | 19.44° C | 98% | 1012.4 hPa | 4.83 mm | - | 0 W/m² | - |
| 1778144315 | 19.44° C | 97% | 1012.2 hPa | 1.78 mm | - | 0 W/m² | - |
| 1778144012 | 19.44° C | 97% | 1012 hPa | 1.27 mm | - | 0 W/m² | - |
* Rain latest hour (hover to see other rain measurements)
** Current wind speed in m/s (hover to see current wind gust speed)